Location: Bessat
(45.8735°N, 1.9924°E)
Time: 13:31:30
(UTC+00:00)

Cosmos 1937 Rocket - Pass Details

Date: 11 May 2021
Orbit: 745 x 781 km, 74.0° (Epoch: 19 June)

Event Time Altitude Azimuth Distance (km) Brightness Sun altitude
Exits shadow 22:09:35 47° 114° (ESE) 987 3.7 -22.2°
Maximum altitude 22:09:50 47° 105° (ESE) 982 3.7 -22.2°
Drops below altitude 10° 22:14:46 10° 32° (NNE) 2,284 6.4 -22.6°
Sets 22:17:13 0° 27° (NNE) 3,218 7.3 -22.8°
